This is the latest recevied weather packets stored in our database for station/object WX7FGZ-6. If no packets are shown the sender has not sent any weather packets the latest 1 day(s).
| Time | Temp. | Humidity | Pressure | Rain* | Wind** | Luminosity | Snow |
|---|---|---|---|---|---|---|---|
| 1778051172 | -5.56° C | 88% | 1014.4 hPa | 0 mm | 2.68 m/s, 39° | - | - |
| 1778050873 | -5.56° C | 88% | 1014.4 hPa | 0 mm | 2.24 m/s, 15° | - | - |
| 1778050572 | -6.11° C | 88% | 1014.3 hPa | 0 mm | 2.68 m/s, 22° | - | - |
| 1778050272 | -6.11° C | 88% | 1014.4 hPa | 0 mm | 2.24 m/s, 19° | - | - |
| 1778049972 | -6.11° C | 88% | 1014.4 hPa | 0 mm | 2.24 m/s, 18° | - | - |
| 1778049672 | -6.11° C | 88% | 1014.4 hPa | 0 mm | 2.24 m/s, 13° | - | - |
| 1778049595 | -6.11° C | 88% | 1014.3 hPa | 0 mm | 2.68 m/s, 21° | - | - |
| 1778049372 | -6.11° C | 88% | 1014.3 hPa | 0 mm | 2.68 m/s, 21° | - | - |
| 1778049268 | -5.56° C | 88% | 1014.3 hPa | 0 mm | 2.24 m/s, 14° | - | - |
| 1778049072 | -5.56° C | 88% | 1014.3 hPa | 0 mm | 2.24 m/s, 14° | - | - |
| 1778048772 | -5.56° C | 88% | 1014.4 hPa | 0 mm | 1.79 m/s, 21° | - | - |
| 1778048472 | -5.56° C | 88% | 1014.4 hPa | 0 mm | 1.79 m/s, 10° | - | - |
| 1778048172 | -5.56° C | 88% | 1014.4 hPa | 0 mm | 1.34 m/s, 21° | - | - |
| 1778047872 | -5.56° C | 88% | 1014.3 hPa | 0 mm | 1.79 m/s, 355° | - | - |
| 1778047574 | -5.56° C | 88% | 1014.3 hPa | 0 mm | 1.34 m/s, 8° | - | - |
| 1778047272 | -5.56° C | 88% | 1014.2 hPa | 0 mm | 2.24 m/s, 18° | - | - |
| 1778046972 | -5° C | 88% | 1014.2 hPa | 0 mm | 1.34 m/s, 14° | - | - |
| 1778046672 | -5° C | 88% | 1014.1 hPa | 0 mm | 1.79 m/s, 18° | - | - |
| 1778046373 | -5° C | 88% | 1014.1 hPa | 0 mm | 0.89 m/s, 11° | - | - |
| 1778046073 | -5° C | 88% | 1014.2 hPa | 0 mm | 1.34 m/s, 5° | - | - |
| 1778045772 | -5° C | 88% | 1014.3 hPa | 0 mm | 1.34 m/s, 12° | - | - |
| 1778045472 | -5° C | 88% | 1014.2 hPa | 0 mm | 0.45 m/s, 8° | - | - |
| 1778045172 | -5° C | 88% | 1014.2 hPa | 0 mm | 0.45 m/s, 328° | - | - |
| 1778044829 | -5° C | 88% | 1014.2 hPa | 0 mm | 0.45 m/s, 284° | - | - |
| 1778044529 | -5° C | 88% | 1014.2 hPa | 0 mm | 0.45 m/s, 336° | - | - |
* Rain latest hour (hover to see other rain measurements)
** Current wind speed in m/s (hover to see current wind gust speed)